Tracking 24122 objects as of 9-Dec-2021
HD Live streaming from Space Station
objects crossing your sky now

OPS 4682 DEB

Track OPS 4682 DEB now!
10-day predictions


NORAD ID: 29059
Int'l Code: 1965-027BJ
Perigee: 1,272.0 km
Apogee: 1,317.3 km
Inclination: 90.3 °
Period: 111.3 minutes
Semi major axis: 7665 km
RCS: 0.0242 m2 (small)
Launch date: April 3, 1965
Source: United States (US)
Launch site: AIR FORCE WESTERN TEST RANGE (AFWTR)

Note: This is SATELLITE DEBRIS
aabbcc
Your satellite tracking list
Your tracking list is empty




NASA's NSSDC Master Catalog

Two Line Element Set (TLE):
1 29059U 65027BJ  21342.24077154  .00000088  00000-0  29489-3 0  9998
2 29059  90.2689 328.9961 0029542 229.8965 141.6347 12.93530057941995
Source of the keplerian elements: AFSPC